Location: Camp at the Woods
(43.2055°N, 93.0905°W)
Time: 00:39:21
(UTC+00:00)

Cosmos 2227 Rocket - Pass Details

Date: 25 May 2025
Orbit: 837 x 844 km, 71.0° (Epoch: 12 June)

Event Time Altitude Azimuth Distance (km) Brightness Sun altitude
Exits shadow 06:22:54 16° 105° (ESE) 2,032 4.1 -25.7°
Maximum altitude 06:23:23 17° 98° (E) 2,024 4.1 -25.7°
Drops below altitude 10° 06:26:48 10° 61° (ENE) 2,459 5.0 -25.7°
Sets 06:30:06 0° 41° (NE) 3,400 6.2 -25.6°
